Watsonville, CA

11:27 AM PDT on August 23, 2017 (GMT -0700)
Watsonville Municipal

Weather History for KWVI - January, 2013

Change the Weather History Date:

Saturday, January 12, 2013

  Actual Average Record
Temperature  
Mean Temperature 43 °F 50 °F  
Max Temperature 51 °F 61 °F 77 °F (2009)
Min Temperature 34 °F 39 °F 27 °F (2007)
Degree Days  
Heating Degree Days 22    
Month to date heating degree days 225  
Since 1 July heating degree days 1453  
Cooling Degree Days 0    
Month to date cooling degree days 0  
Year to date cooling degree days 0  
Moisture  
Dew Point 32 °F    
Average Humidity 67    
Maximum Humidity 92    
Minimum Humidity 42    
Precipitation  
Precipitation 0.00 in - 2.18 in (1952)
Month to date precipitation 0.59  
Year to date precipitation 0.59  
Since 1 July precipitation 11.53  
Sea Level Pressure  
Sea Level Pressure 30.19 in    
Wind  
Wind Speed 3 mph (NW)    
Max Wind Speed 12 mph    
Max Gust Speed 14 mph    
Visibility 10 miles    
Events      
T = Trace of Precipitation, MM = Missing Value Source: NWS Daily Summary

Daily Weather History Graph

Daily Weather History Graph

Search for Another Location

Airport or City:

Trip Planner

Search our weather history database for the weather conditions in past years. The results will help you decide how hot, cold, wet, or windy it might be!

Date:

Astronomy

Jan. 12, 2013 Rise Set
Actual Time 7:19 AM PST 5:11 PM PST
Civil Twilight 6:51 AM PST 5:40 PM PST
Nautical Twilight 6:19 AM PST 6:12 PM PST
Astronomical Twilight 5:48 AM PST 6:43 PM PST
Moon 7:45 AM PST (1/12) 6:43 PM PST (1/12)
Length of Visible Light 10h 48m
Length of Day
9h 51m
New Moon, 2% of the Moon is Illuminated
Jan 12
New Moon
Jan 18
First Quarter
Jan 26
Full
Feb 3
Last Quarter
Feb 9
New

Hourly Weather History & Observations

Time (PST) Temp. Windchill Dew Point Humidity Pressure Visibility Wind Dir Wind Speed Gust Speed Precip Events Conditions
12:53 AM 37.9 °F - 35.1 °F 89% 30.17 in 10.0 mi Calm Calm - N/A   Clear
1:53 AM 37.9 °F - 35.1 °F 89% 30.18 in 10.0 mi Calm Calm - N/A   Clear
2:53 AM 37.0 °F 33.3 °F 34.0 °F 89% 30.18 in 10.0 mi NW 4.6 mph - N/A   Clear
3:53 AM 36.0 °F 32.1 °F 33.1 °F 89% 30.19 in 10.0 mi NW 4.6 mph - N/A   Clear
4:53 AM 35.1 °F 31.0 °F 33.1 °F 92% 30.19 in 10.0 mi NW 4.6 mph - N/A   Clear
5:53 AM 35.1 °F 30.1 °F 32.0 °F 89% 30.20 in 10.0 mi NW 5.8 mph - N/A   Clear
6:53 AM 34.0 °F 31.0 °F 30.9 °F 89% 30.23 in 10.0 mi WNW 3.5 mph - N/A   Clear
7:53 AM 35.1 °F - 32.0 °F 89% 30.26 in 10.0 mi Calm Calm - N/A   Clear
8:53 AM 37.9 °F - 34.0 °F 86% 30.27 in 10.0 mi Calm Calm - N/A   Clear
9:53 AM 43.0 °F 41.3 °F 35.1 °F 74% 30.26 in 10.0 mi ENE 3.5 mph - N/A   Clear
10:53 AM 46.0 °F - 34.0 °F 63% 30.25 in 10.0 mi Calm Calm - N/A   Clear
11:53 AM 48.0 °F - 33.1 °F 56% 30.22 in 10.0 mi SSE 3.5 mph - N/A   Clear
12:53 PM 48.9 °F - 28.9 °F 46% 30.19 in 10.0 mi Variable 3.5 mph - N/A   Clear
1:53 PM 51.1 °F - 30.0 °F 44% 30.17 in 10.0 mi Calm Calm - N/A   Mostly Cloudy
2:53 PM 48.9 °F - 27.0 °F 43% 30.17 in 10.0 mi SW 9.2 mph - N/A   Partly Cloudy
3:53 PM 48.0 °F - 32.0 °F 54% 30.15 in 10.0 mi WSW 8.1 mph - N/A   Clear
4:53 PM 45.0 °F 42.6 °F 33.1 °F 63% 30.15 in 10.0 mi WSW 4.6 mph - N/A   Clear
5:53 PM 44.1 °F 42.5 °F 33.1 °F 65% 30.16 in 10.0 mi NW 3.5 mph - N/A   Clear
6:53 PM 39.9 °F 37.8 °F 34.0 °F 79% 30.16 in 10.0 mi NW 3.5 mph - N/A   Overcast
7:53 PM 41.0 °F - 34.0 °F 76% 30.17 in 10.0 mi Calm Calm - N/A   Overcast
8:53 PM 39.0 °F 36.8 °F 34.0 °F 82% 30.17 in 10.0 mi NNW 3.5 mph - N/A   Partly Cloudy
9:53 PM 37.0 °F - 32.0 °F 82% 30.17 in 10.0 mi Calm Calm - N/A   Clear
10:53 PM 35.1 °F 31.0 °F 28.9 °F 78% 30.18 in 10.0 mi NW 4.6 mph - N/A   Clear
11:53 PM 34.0 °F 28.8 °F 28.0 °F 79% 30.20 in 10.0 mi NNW 5.8 mph - N/A   Clear